AO-07
1 07530U 74089B 25294.86784687 -.00000031 00000-0 94682-4 0 9997
2 07530 101.9985 300.5839 0011984 225.3749 202.4630 12.53692677330655


Ligne 0
Le nom commun de l'objetAO-07
Ligne 1
Numéro de catalogue satellite07530U
Désignateur international74089B
Année de lancement74
Numéro de lancement dans l'année089
Object du lancementB
Époque (année)25
Époque (Jour de l'année en UTC)294.86784687
1ère dérivée du mouvement moyen-.00000031
2ème dérivée du mouvement moyen 00000-0
B * Terme de glissement 94682-4
Type de jeu d'éléments0
Numéro d'élément 999
Ligne 2
Numéro de catalogue satellite07530
Inclinaison de l'orbite (degrés)101.9985
Ascension droite du nœud ascendant (degrés)300.5839
Excentricité0011984
Argument du Périgée (degrés)225.3749
Anomalie moyenne (degrés)202.4630
Mouvement moyen (révolutions / jour)12.53692677
Numéro de révolution à l'époque33065
Valeurs déduites
Période Orbitale (en minutes)114.9 min.
Demi-grand axe (en kilomètres)7827.2 Km
Altitude à l‘Apogée (en kilomètres)1465.6 Km
Altitude au Périgée (en kilomètres)1446.8 Km

* Sources des TLE's : Celestrack